[[{"header":{"parameterUnit":"m.s-1","parameterCategory":1,"la1":30.2991,"la2":30.254,"lo1":-89.0895,"lo2":-89.0444,"dy":0.0017,"dx":0.0017,"nx":28,"ny":28,"refTime":"2024-08-23T09:00:00:Z","depth":0,"parameterNumber":2,"parameterNumberName":"U-component_of_WINDS"},"data":[0,0,0,0,0,0,0,0,0,0,0,0,0,0,0,0,0,0,0,0,0,0,0,0,0,0,0,0,0,0,0,0,0,0,0,0,0,0,0,0,0,0,0,0,0,0,0,0,0,0,0,0,0,0,0,0,0,0,-3.53,-3.53,0,-3.5342,-3.5342,-3.5343,-3.5275,-3.5273,-3.527,-3.5268,-3.5309,-3.5312,-3.5316,0,0,0,0,0,0,0,0,0,0,0,0,0,-3.5158,-3.5161,-3.53,-3.53,-3.5301,-3.5342,-3.5342,-3.5343,-3.5275,-3.5273,-3.527,-3.5267,-3.5308,-3.5312,-3.5316,0,0,0,0,0,0,0,0,0,0,0,0,0,-3.5212,-3.5162,-3.53,-3.5272,-3.527,-3.5342,-3.5342,-3.5343,-3.5276,-3.5272,-3.5269,-3.5266,-3.5307,-3.5312,-3.5317,-3.5416,0,0,-3.5331,-3.5334,0,0,0,0,0,0,0,0,-3.5209,-3.5217,-3.5276,-3.5274,-3.5272,-3.53,-3.5307,-3.5368,-3.5277,-3.5274,-3.5268,-3.5264,-3.5309,-3.5313,-3.5329,-3.5418,-3.542,-3.5332,-3.5335,-3.5337,-3.5338,0,0,0,0,0,0,0,-3.5205,-3.5215,-3.5316,-3.5277,-3.5274,-3.5257,-3.5261,-3.5319,-3.531,-3.5274,-3.5269,-3.5275,-3.5307,-3.5324,-3.5329,-3.5421,-3.5332,-3.5336,-3.5339,-3.5341,-3.5592,-3.5595,0,0,0,0,0,0,-3.5205,-3.5212,-3.5315,-3.5318,-3.5231,-3.5262,-3.5266,-3.5294,-3.5309,-3.5308,-3.5278,-3.5272,-3.5318,-3.5324,-3.533,-3.5446,-3.5337,-3.5342,-3.5344,-3.5588,-3.5593,-3.5597,0,0,0,0,0,0,-3.5203,-3.5215,-3.5313,-3.5264,-3.5275,-3.5268,-3.53,-3.5297,-3.5314,-3.5313,-3.531,-3.5297,-3.5315,-3.5324,-3.5395,-3.5447,-3.5344,-3.5348,-3.5584,-3.559,-3.5595,-3.568,0,0,0,0,0,0,-3.5199,-3.5215,-3.5253,-3.5265,-3.5278,-3.5378,-3.5303,-3.53,-3.5323,-3.5315,-3.533,-3.5329,-3.5313,-3.5388,-3.54,-3.5451,-3.5352,-3.5579,-3.5586,-3.5593,-3.5672,-3.5687,-3.5701,0,0,0,0,0,-3.5194,-3.5275,-3.5255,-3.5268,-3.5326,-3.5381,-3.5388,-3.5369,-3.5327,-3.5365,-3.5364,-3.5329,-3.544,-3.5396,-3.5409,-3.5463,-3.5576,-3.5584,-3.5592,-3.5666,-3.5684,-3.57,0,0,0,0,0,0,-3.5269,-3.5276,-3.5254,-3.5342,-3.5362,-3.537,-3.5417,-3.539,-3.5421,-3.5412,-3.5386,-3.539,-3.5466,-3.5472,-3.5423,-3.5559,-3.5501,-3.5512,-3.5552,-3.557,-3.5584,-3.5579,-3.5356,0,0,0,0,0,-3.5296,-3.5341,-3.5345,-3.5422,-3.5433,-3.5424,-3.5447,-3.543,-3.5449,-3.5457,-3.5461,-3.548,-3.5519,-3.5545,-3.5581,-3.5674,-3.5675,-3.5717,-3.5731,-3.5743,-3.5752,-3.5799,-3.5817,-3.5624,-3.5624,-3.5624,0,0,-3.5351,-3.5361,-3.5391,-3.5437,-3.545,-3.5496,-3.5431,-3.5483,-3.5516,-3.5465,-3.5531,-3.5536,-3.5555,-3.5637,-3.5674,-3.5644,-3.5806,-3.5753,-3.5763,-3.5766,-3.5809,-3.5828,-3.5844,-3.563,-3.5629,-3.5628,0,0,-3.5476,-3.5489,-3.5553,-3.5568,-3.5589,-3.5582,-3.5598,-3.561,-3.5611,-3.5678,-3.564,-3.5679,-3.5747,-3.5762,-3.5779,-3.5909,-3.5876,-3.5921,-3.5994,-3.604,-3.6055,-3.6069,-3.6112,-3.6129,-3.5931,-3.5931,-3.5931,0,-3.5542,-3.561,-3.559,-3.5644,-3.5664,-3.5621,-3.5685,-3.57,-3.5731,-3.5746,-3.5713,-3.5797,-3.5807,-3.5891,-3.5923,-3.5939,-3.5954,-3.5918,-3.6055,-3.6068,-3.608,-3.6122,-3.6138,-3.5936,-3.5936,-3.5935,-3.5935,0,-3.5689,-3.5737,-3.5787,-3.5818,-3.5845,-3.5904,-3.5891,-3.592,-3.5902,-3.5898,-3.5966,-3.5977,-3.6014,-3.6033,-3.6016,-3.6114,-3.6095,-3.606,-3.6,-3.6104,-3.6142,-3.6158,-3.5944,-3.5942,-3.594,-3.5939,0,0,-3.586,-3.5879,-3.5898,-3.591,-3.593,-3.5967,-3.6024,-3.606,-3.6084,-3.6108,-3.6153,-3.6212,-3.6179,-3.6198,-3.6182,-3.6223,-3.6322,-3.6181,-3.6181,-3.6205,-3.6428,-3.6452,-3.6471,-3.6302,-3.6305,-3.6307,-3.6425,0,-3.5981,-3.6079,-3.6062,-3.6157,-3.6199,-3.6159,-3.6208,-3.6225,-3.6223,-3.6259,-3.6257,-3.6298,-3.6253,-3.6263,-3.6303,-3.6301,-3.6365,-3.6293,-3.6341,-3.6343,-3.6334,-3.6491,-3.6518,-3.6628,-3.644,-3.6443,-3.6445,0,-3.6136,-3.6165,-3.6263,-3.6275,-3.6292,-3.6337,-3.6368,-3.6403,-3.6421,-3.6417,-3.6438,-3.6414,-3.6469,-3.6411,-3.6486,-3.6437,-3.6456,-3.6459,-3.6462,-3.6463,-3.6398,-3.6494,-3.6664,-3.6679,-3.6469,-3.6467,-3.6465,0,-3.6247,-3.6311,-3.6377,-3.639,-3.6406,-3.6438,-3.6446,-3.6461,-3.6483,-3.6511,-3.6524,-3.6558,-3.6576,-3.6602,-3.6587,-3.6547,-3.6663,-3.6605,-3.6659,-3.666,-3.6683,-3.6681,-3.6855,-3.6701,-3.6701,-3.6701,-3.67,0,-3.6382,-3.6444,-3.6427,-3.6468,-3.6535,-3.6515,-3.6582,-3.6585,-3.6598,-3.6638,-3.6606,-3.6644,-3.6624,-3.666,-3.6649,-3.6711,-3.672,-3.6717,-3.6712,-3.6718,-3.6718,-3.6728,-3.6718,-3.6705,-3.6704,-3.6703,-3.6702,0,-3.6516,-3.6508,-3.6578,-3.6588,-3.6591,-3.664,-3.6648,-3.6685,-3.6682,-3.6732,-3.6743,-3.6737,-3.6778,-3.6767,-3.6811,-3.6804,-3.6881,-3.6869,-3.6875,-3.6871,-3.6925,-3.6919,-3.7109,-3.7132,-3.6966,-3.6967,-3.6969,0,-3.6602,-3.6648,-3.6663,-3.6687,-3.6698,-3.6738,-3.676,-3.6743,-3.6767,-3.6791,-3.6825,-3.6863,-3.6892,-3.6959,-3.6958,-3.6992,-3.6978,-3.7042,-3.6983,-3.6986,-3.6975,-3.6972,-3.6975,-3.7053,-3.7055,-3.7057,-3.7058,0,-3.6754,-3.6747,-3.6781,-3.6814,-3.6842,-3.6866,-3.6888,-3.691,-3.6893,-3.6923,-3.6964,-3.6987,-3.7032,-3.7069,-3.71,-3.7107,-3.7079,-3.7077,-3.7091,-3.7096,-3.7096,-3.7094,-3.6904,-3.7072,-3.7071,-3.707,-3.7069,-3.7068,-3.6864,-3.6902,-3.6918,-3.6957,-3.6971,-3.6992,-3.7027,-3.7028,-3.7062,-3.7097,-3.7085,-3.7132,-3.7148,-3.7186,-3.7197,-3.7233,-3.7208,-3.7229,-3.7234,-3.7239,-3.7244,-3.7093,-3.7239,-3.7238,-3.7238,-3.7238,-3.7237,0,-3.7012,-3.702,-3.7056,-3.7087,-3.7117,-3.709,-3.7112,-3.7138,-3.718,-3.7198,-3.7227,-3.7274,-3.731,-3.7312,-3.7346,-3.7373,-3.7361,-3.7383,-3.7379,-3.738,-3.7266,-3.7249,-3.7392,-3.7392,-3.7392,-3.7392,-3.7391,-3.7391,-3.7092,-3.7154,-3.715,-3.7219,-3.7226,-3.7272,-3.7287,-3.7305,-3.7319,-3.7372,-3.7402,-3.7404,-3.7414,-3.7448,-3.748,-3.748,-3.7492,-3.7518,-3.7512,-3.7404,-3.7389,-3.7374,-3.7358,-3.7521,-3.7522,-3.7624,-3.7625,-3.7625]},{"header":{"parameterUnit":"m.s-1","parameterCategory":1,"la1":30.2991,"la2":30.254,"lo1":-89.0895,"lo2":-89.0444,"dy":0.0017,"dx":0.0017,"nx":28,"ny":28,"refTime":"2024-08-23T09:00:00:Z","depth":0,"parameterNumber":3,"parameterNumberName":"V-component_of_WINDS"},"data":[0,0,0,0,0,0,0,0,0,0,0,0,0,0,0,0,0,0,0,0,0,0,0,0,0,0,0,0,0,0,0,0,0,0,0,0,0,0,0,0,0,0,0,0,0,0,0,0,0,0,0,0,0,0,0,0,0,0,2.1856,2.1857,0,2.19,2.1901,2.1901,2.1873,2.1872,2.1871,2.1869,2.1912,2.1914,2.1917,0,0,0,0,0,0,0,0,0,0,0,0,0,2.1745,2.1747,2.1856,2.1857,2.1857,2.19,2.1901,2.1901,2.1873,2.1872,2.187,2.1869,2.1911,2.1914,2.1917,0,0,0,0,0,0,0,0,0,0,0,0,0,2.1791,2.1748,2.1856,2.1848,2.1848,2.19,2.1901,2.1902,2.1874,2.1872,2.187,2.1868,2.191,2.1914,2.1917,2.1978,0,0,2.1928,2.1929,0,0,0,0,0,0,0,0,2.1789,2.1796,2.1849,2.1849,2.1849,2.1879,2.1877,2.1927,2.1874,2.1864,2.1869,2.1867,2.1902,2.1906,2.1919,2.198,2.1982,2.1928,2.193,2.1932,2.1933,0,0,0,0,0,0,0,2.1786,2.1793,2.1873,2.185,2.185,2.1842,2.1847,2.1886,2.1894,2.1865,2.1863,2.1869,2.1902,2.1916,2.192,2.1982,2.1928,2.1931,2.1933,2.1935,2.2095,2.2097,0,0,0,0,0,0,2.1783,2.1791,2.1872,2.1875,2.1814,2.1846,2.1851,2.1871,2.1893,2.1895,2.187,2.1867,2.1911,2.1916,2.1921,2.1993,2.1932,2.1935,2.1937,2.2093,2.2095,2.2098,0,0,0,0,0,0,2.1781,2.1791,2.187,2.1832,2.1842,2.185,2.1873,2.1873,2.1887,2.1897,2.1898,2.1883,2.1909,2.1916,2.1964,2.1994,2.1937,2.194,2.209,2.2094,2.2097,2.2138,0,0,0,0,0,0,2.1778,2.179,2.1814,2.1833,2.1844,2.1913,2.1875,2.1876,2.1893,2.189,2.1909,2.1911,2.1908,2.1959,2.1968,2.1998,2.1943,2.2088,2.2092,2.2096,2.2134,2.2142,2.215,0,0,0,0,0,2.1774,2.1823,2.1815,2.1825,2.1874,2.1915,2.1921,2.1918,2.1896,2.1919,2.1926,2.191,2.199,2.1964,2.1974,2.2006,2.2086,2.2091,2.2095,2.2131,2.2141,2.2149,0,0,0,0,0,0,2.1807,2.1826,2.1817,2.1874,2.1893,2.191,2.194,2.1929,2.1954,2.195,2.1944,2.1948,2.1998,2.2007,2.1978,2.2065,2.2034,2.2041,2.2058,2.2068,2.2075,2.2071,2.1946,0,0,0,0,0,2.1821,2.1853,2.1868,2.1917,2.1927,2.1932,2.195,2.1946,2.1965,2.1973,2.1983,2.2001,2.203,2.205,2.2077,2.2136,2.2139,2.2162,2.217,2.2176,2.2182,2.2213,2.2223,2.2114,2.2114,2.2113,0,0,2.1849,2.1864,2.1885,2.1924,2.1938,2.1971,2.1939,2.1975,2.1999,2.1978,2.2024,2.2032,2.2052,2.2106,2.213,2.2114,2.2213,2.2182,2.2187,2.219,2.2219,2.2229,2.2238,2.2117,2.2116,2.2116,0,0,2.1919,2.1933,2.1976,2.1991,2.2013,2.2016,2.2027,2.2046,2.205,2.2097,2.2081,2.2109,2.216,2.2175,2.2189,2.2265,2.2251,2.2274,2.2314,2.2344,2.2352,2.236,2.2386,2.2395,2.228,2.228,2.228,0,2.1951,2.2001,2.1998,2.2036,2.2053,2.2037,2.2079,2.2093,2.2123,2.2135,2.2118,2.2181,2.2194,2.225,2.2269,2.2281,2.2292,2.2271,2.2352,2.2359,2.2366,2.2391,2.2401,2.2282,2.2282,2.2282,2.2282,0,2.204,2.2074,2.2106,2.2136,2.2157,2.2197,2.2199,2.222,2.2215,2.222,2.2267,2.2281,2.2311,2.2325,2.2319,2.238,2.237,2.2352,2.232,2.2379,2.2402,2.2412,2.2286,2.2285,2.2284,2.2284,0,0,2.2129,2.2158,2.217,2.2183,2.2207,2.2233,2.2272,2.2302,2.232,2.2342,2.2373,2.2417,2.2401,2.2417,2.2414,2.244,2.2498,2.2419,2.242,2.2432,2.2565,2.2577,2.2588,2.249,2.2491,2.2493,2.2563,0,2.2199,2.2267,2.2266,2.2329,2.2361,2.2346,2.238,2.2397,2.2403,2.243,2.2436,2.2466,2.2444,2.2453,2.2479,2.2486,2.2524,2.2481,2.2518,2.2519,2.2512,2.26,2.2614,2.2679,2.2572,2.2574,2.2575,0,2.2289,2.2315,2.2381,2.24,2.2414,2.2444,2.2471,2.2498,2.2518,2.252,2.2538,2.253,2.2569,2.2537,2.2589,2.256,2.2575,2.2581,2.2583,2.2585,2.2549,2.2604,2.27,2.2709,2.2589,2.2588,2.2587,0,2.2347,2.2398,2.2444,2.2456,2.248,2.2501,2.2512,2.253,2.2548,2.2572,2.2584,2.2612,2.2626,2.2648,2.2647,2.2625,2.27,2.2669,2.2702,2.2702,2.2717,2.2716,2.2816,2.2729,2.2729,2.2729,2.2729,0,2.2424,2.2465,2.247,2.2498,2.2543,2.2542,2.2586,2.2595,2.2611,2.264,2.2629,2.2656,2.2655,2.2682,2.2682,2.2725,2.2732,2.2734,2.2733,2.2734,2.2734,2.2743,2.2738,2.2732,2.2731,2.2731,2.273,0,2.2496,2.2501,2.255,2.2569,2.2574,2.2607,2.2622,2.2649,2.2654,2.2691,2.2699,2.2707,2.2738,2.274,2.2777,2.2777,2.2829,2.2823,2.2822,2.2821,2.2854,2.285,2.2962,2.2976,2.2881,2.2882,2.2883,0,2.2544,2.2575,2.2598,2.2617,2.2629,2.266,2.2679,2.2678,2.2698,2.2723,2.2746,2.2777,2.2802,2.2853,2.2861,2.2889,2.2884,2.2921,2.2887,2.2888,2.2883,2.288,2.2883,2.2927,2.2928,2.2929,2.2929,0,2.2629,2.263,2.2658,2.2687,2.271,2.2732,2.2753,2.2769,2.2771,2.2794,2.2827,2.2846,2.2884,2.2914,2.2941,2.2951,2.2941,2.294,2.2949,2.295,2.2947,2.2948,2.2838,2.2937,2.2936,2.2936,2.2935,2.2935,2.269,2.2717,2.2737,2.2768,2.2784,2.2804,2.283,2.2838,2.2866,2.2897,2.2895,2.2931,2.295,2.2985,2.2998,2.3025,2.3012,2.3026,2.3029,2.3032,2.3035,2.2944,2.303,2.303,2.303,2.303,2.303,0,2.2774,2.2786,2.2815,2.2845,2.2869,2.2858,2.2881,2.2902,2.2934,2.2953,2.2978,2.3015,2.3045,2.3055,2.3084,2.3104,2.31,2.3111,2.3109,2.3112,2.3045,2.3034,2.3114,2.3114,2.3114,2.3114,2.3114,2.3114,2.282,2.2865,2.2868,2.292,2.2932,2.2968,2.2982,2.3,2.3015,2.3057,2.3082,2.3089,2.3105,2.3135,2.3161,2.3163,2.3174,2.3187,2.3188,2.3125,2.3116,2.3108,2.3098,2.319,2.319,2.3252,2.3252,2.3253]}]]